Location: Gammelsbach
(49.5261°N, 8.9630°E)
Time: 05:15:27
(UTC+00:00)

ARIANE 5 R/B - Pass Details

Date: 17 June 2025
Orbit: 615 x 647 km, 98.0° (Epoch: 10 July)

Event Time Altitude Azimuth Distance (km) Brightness Sun altitude
Exits shadow 23:23:39 17° 232° (SW) 1,619 4.3 -17.1°
Maximum altitude 23:25:37 22° 268° (W) 1,391 4.3 -17.1°
Drops below altitude 10° 23:29:08 10° 320° (NW) 2,053 5.9 -17.1°
Sets 23:31:47 0° 335° (NNW) 2,972 7.2 -17.1°
